Weather in Navojoa

Mexico     27°04′22″N   109°26′32″W
temp.,
°C
wind,
m/s
gust,
m/s
humid.,
%
clouds,
%
prec.,
mm/h
press.,
hPa
HPBL,
m
7 may, fri
fri723:00+23w12290 0.0 101411
02:00+20w22400 0.0 101211
05:00+19n11500 0.0 101311
08:00+26n11310 0.0 1014296
11:00+33sw23170 0.0 10121080
14:00+36sw75100 0.0 10101603
17:00+33wsw55155 0.0 1009934
20:00+26wsw22275 0.0 101014
8 may, sat
sat823:00+23w113771 0.0 101111
02:00+21e003977 0.0 101011
05:00+21s114062 0.0 101111
08:00+27sse34325 0.0 1013500
11:00+33s67180 0.0 10121400
14:00+34ssw88180 0.0 10101498
17:00+31ssw77180 0.0 1010873
20:00+23s33550 0.0 101142
9 may, sun
sun923:00+22sse22660 0.0 101219
02:00+21se22710 0.0 101122
05:00+21se22690 0.0 101221
08:00+27sse57470 0.0 1013728
11:00+32s772711 0.0 10121430
14:00+34ssw88256 0.0 10101587
17:00+32sw67198 0.0 1009996
20:00+24sse33525 0.0 101037
10 may, mon
mon1023:00+22sse22700 0.0 101113
02:00+21sse337231 0.0 101037
05:00+20se22740 0.0 101116
08:00+27se35400 0.0 1012542
11:00+33s67210 0.0 10111521
14:00+35ssw88190 0.0 10091593
17:00+32sw65170 0.0 10081081
20:00+25s23330 0.0 101019
11 may, tue
tue1123:00+22s11450 0.0 101111
02:00+21ene11430 0.0 101011
05:00+21e11360 0.0 101111
08:00+27se23210 0.0 1012419
11:00+34ssw44110 0.0 10111494
14:00+36sw65110 0.0 10091716
17:00+33wsw65130 0.0 10091002
20:00+25wnw22190 0.0 101112